Location: Fuglau
(48.6333°N, 15.5500°E)
Time: 15:16:41
(UTC+00:00)

STARLINK-1068 - Pass Details

Date: 27 February 2020
Orbit: 548 x 551 km, 53.0° (Epoch: 28 March)

Event Time Altitude Azimuth Distance (km) Brightness Sun altitude
Rises 17:43:13 0° 257° (WSW) 2,712 8.9 -11.6°
Reaches altitude 10° 17:45:28 10° 260° (W) 1,820 7.7 -12.0°
Maximum altitude 17:49:34 62° 342° (NNW) 620 3.9 -12.7°
Enters shadow 17:52:39 17° 61° (ENE) 1,430 5.2 -13.2°
